Flag for U.S.A. Weather past 2 weeks in Wilmington, North Carolina, U.S.A.

Now
60 °F

Sunny.


Feels Like: 60 °F
Forecast: 32 / 58 °F
Wind: 12 mph from South

Location: New Hanover International Airport

Current Time: Feb 1, 2015 at 5:18:52 PM

Latest Report: Feb 1, 2015 at 3:53 PM


Visibility: 10 mi

Pressure: 30.14 "Hg

Humidity: 47%

Dew point: 40 °F

Location of WilmingtonLocation

Historic Weather in Wilmington — Graph

°F

Wilmington temperature yesterday

Maximum temperature yesterday: 50 °F (at 3:53 PM)
Minimum temperature yesterday: 28 °F (at 6:53 AM)
Average temperature yesterday: 37 °F

Past Weeks' High & Low Weather Summary

 TemperatureHumidityPressure
High67 °F (Jan 24, 1:53 AM)100% (Jan 25, 7:53 AM)30.39 "Hg (Jan 25, 7:53 AM)
Low22 °F (Jan 29, 4:53 AM)19% (Jan 31, 2:53 PM)29.48 "Hg (Jan 24, 7:01 AM)
Average47 °F68%30.03 "Hg
* Reported Jan 17 3:53 PM — Feb 1 3:53 PM, Wilmington, Weather by CustomWeather, © 2014

Note: Actual official high and low records may vary slightly from our data, if they occured in-between our weather recording intervals... More about our weather records

Advertising

Wilmington weather history for previous 24 hours

 ConditionsComfort  
Time TempWeatherWind HumidityBarometerVisibility
3:53 PM
Feb 1
60 °FSunny.12 mph47%30.14 "Hg10 mi
2:53 PM60 °FSunny.14 mph41%30.16 "Hg10 mi
1:53 PM60 °FSunny.15 mph33%30.18 "Hg10 mi
12:53 PM60 °FSunny.14 mph31%30.24 "Hg10 mi
11:53 AM56 °FSunny.8 mph40%30.27 "Hg10 mi
10:53 AM51 °FSunny.5 mph52%30.32 "Hg10 mi
9:53 AM49 °FSunny.6 mph59%30.32 "Hg10 mi
8:53 AM43 °FSunny.5 mph71%30.32 "Hg10 mi
7:53 AM39 °FPassing clouds.No wind79%30.33 "Hg10 mi
6:53 AM37 °FClear.No wind86%30.32 "Hg10 mi
5:53 AM36 °FPassing clouds.No wind85%30.31 "Hg10 mi
4:53 AM36 °FClear.No wind79%30.32 "Hg10 mi
3:53 AM33 °FClear.No wind85%30.32 "Hg10 mi
2:53 AM31 °FClear.No wind85%30.32 "Hg10 mi
1:53 AM31 °FClear.No wind89%30.30 "Hg10 mi
12:53 AM31 °FClear.No wind82%30.32 "Hg10 mi
11:53 PM
Jan 31
32 °FClear.No wind79%30.33 "Hg10 mi
10:53 PM33 °FClear.No wind78%30.34 "Hg10 mi
9:53 PM34 °FClear.No wind73%30.34 "Hg10 mi
8:53 PM34 °FClear.No wind73%30.34 "Hg10 mi
7:53 PM37 °FClear.No wind60%30.35 "Hg10 mi
6:53 PM38 °FClear.5 mph58%30.34 "Hg10 mi
5:53 PM44 °FClear.No wind27%30.33 "Hg10 mi
Weather by CustomWeather, © 2014

See weather overviewHow to use our weather pages